Redmond, OR

7:11 PM PST on December 16, 2017 (GMT -0800)
Roberts Field Airport

Weather History for KRDM - November, 2011

Change the Weather History Date:

Friday, November 25, 2011

  Actual Average Record
Temperature  
Mean Temperature 34 °F 34 °F  
Max Temperature 46 °F 45 °F 66 °F (1999)
Min Temperature 22 °F 24 °F -11 °F (1993)
Degree Days  
Heating Degree Days 31 31  
Month to date heating degree days 719 671  
Since 1 July heating degree days 1557 1616  
Cooling Degree Days 0 0  
Month to date cooling degree days 0 0  
Year to date cooling degree days 155 222  
Moisture  
Dew Point 23 °F    
Average Humidity 60    
Maximum Humidity 89    
Minimum Humidity 31    
Precipitation  
Precipitation T in 0.04 in 0.57 in (1977)
Month to date precipitation 0.21 0.79  
Year to date precipitation 5.89 7.57  
Sea Level Pressure  
Sea Level Pressure 30.28 in    
Wind  
Wind Speed 7 mph (NNW)    
Max Wind Speed 21 mph    
Max Gust Speed 26 mph    
Visibility 10 miles    
Events Rain    
T = Trace of Precipitation, MM = Missing Value Source: NWS Daily Summary

Daily Weather History Graph

Daily Weather History Graph

Search for Another Location

Airport or City:

Trip Planner

Search our weather history database for the weather conditions in past years. The results will help you decide how hot, cold, wet, or windy it might be!

Date:

Astronomy

Nov. 25, 2011 Rise Set
Actual Time 7:12 AM PST 4:29 PM PST
Civil Twilight 6:40 AM PST 5:02 PM PST
Nautical Twilight 6:04 AM PST 5:37 PM PST
Astronomical Twilight 5:30 AM PST 6:12 PM PST
Moon 7:48 AM PST (11/25) 5:00 PM PST (11/25)
Length of Visible Light 10h 21m
Length of Day
9h 17m
New Moon, 0% of the Moon is Illuminated
Nov 25
New Moon
Dec 2
First Quarter
Dec 10
Full
Dec 17
Last Quarter
Dec 24
New

Hourly Weather History & Observations

Time (PST) Temp. Windchill Dew Point Humidity Pressure Visibility Wind Dir Wind Speed Gust Speed Precip Events Conditions
12:56 AM 39.9 °F 34.5 °F 32.0 °F 73% 29.98 in 10.0 mi West 8.1 mph - 0.00 in   Overcast
1:10 AM 39.2 °F 30.8 °F 33.8 °F 81% 29.99 in 10.0 mi NW 15.0 mph - 0.00 in Rain Light Rain
1:24 AM 37.4 °F 30.8 °F 33.8 °F 87% 29.99 in 10.0 mi NW 9.2 mph - 0.00 in   Overcast
1:36 AM 37.4 °F 30.8 °F 32.0 °F 81% 30.00 in 10.0 mi NW 9.2 mph - 0.00 in   Overcast
1:56 AM 35.1 °F 32.2 °F 32.0 °F 89% 30.04 in 10.0 mi West 3.5 mph - 0.00 in   Scattered Clouds
2:56 AM 35.1 °F 26.9 °F 30.0 °F 82% 30.09 in 10.0 mi NW 11.5 mph 19.6 mph N/A   Partly Cloudy
3:56 AM 32.0 °F 28.7 °F 27.0 °F 82% 30.14 in 10.0 mi North 3.5 mph - N/A   Clear
4:56 AM 33.1 °F 25.5 °F 25.0 °F 72% 30.19 in 10.0 mi NW 9.2 mph - N/A   Clear
5:56 AM 34.0 °F 23.4 °F 24.1 °F 67% 30.21 in 10.0 mi NNW 17.3 mph 25.3 mph N/A   Clear
6:56 AM 35.1 °F 26.4 °F 23.0 °F 61% 30.22 in 10.0 mi WNW 12.7 mph 25.3 mph N/A   Clear
7:56 AM 35.1 °F 25.2 °F 23.0 °F 61% 30.29 in 10.0 mi NW 16.1 mph 21.9 mph N/A   Clear
8:56 AM 37.9 °F 30.9 °F 24.1 °F 57% 30.29 in 10.0 mi WNW 10.4 mph - N/A   Clear
9:56 AM 39.2 °F 35.0 °F 24.8 °F 56% 30.30 in 10.0 mi WNW 5.8 mph - N/A   Clear
10:56 AM 39.9 °F 37.8 °F 23.0 °F 51% 30.35 in 10.0 mi WNW 3.5 mph - N/A   Clear
11:56 AM 42.8 °F 41.1 °F 21.2 °F 42% 30.34 in 10.0 mi Variable 3.5 mph - N/A   Clear
12:56 PM 44.1 °F 39.5 °F 21.0 °F 40% 30.37 in 10.0 mi NW 8.1 mph - N/A   Mostly Cloudy
1:56 PM 45.0 °F 41.8 °F 16.0 °F 31% 30.39 in 10.0 mi North 5.8 mph - N/A   Mostly Cloudy
2:56 PM 43.0 °F - 17.1 °F 35% 30.40 in 10.0 mi Calm Calm - N/A   Clear
3:56 PM 42.1 °F 39.2 °F 16.0 °F 35% 30.41 in 10.0 mi East 4.6 mph - N/A   Clear
4:56 PM 34.0 °F 29.8 °F 17.1 °F 50% 30.42 in 10.0 mi East 4.6 mph - N/A   Clear
5:56 PM 26.1 °F 21.9 °F 15.1 °F 63% 30.45 in 10.0 mi East 3.5 mph - N/A   Clear
6:56 PM 24.1 °F - 16.0 °F 71% 30.45 in 10.0 mi Calm Calm - N/A   Clear
7:56 PM 25.0 °F 20.7 °F 17.1 °F 72% 30.46 in 10.0 mi SSE 3.5 mph - N/A   Mostly Cloudy
8:56 PM 30.0 °F 25.2 °F 19.0 °F 64% 30.43 in 10.0 mi ESE 4.6 mph - N/A   Mostly Cloudy
9:56 PM 28.4 °F 24.6 °F 19.4 °F 69% 30.39 in 10.0 mi ESE 3.5 mph - N/A   Clear
10:56 PM 32.0 °F 26.4 °F 19.9 °F 61% 30.45 in 10.0 mi ESE 5.8 mph - N/A   Mostly Cloudy
11:56 PM 34.0 °F 28.0 °F 21.9 °F 61% 30.44 in 10.0 mi SE 6.9 mph - N/A   Overcast